Flag for Canada Weather past 2 weeks in Maple Ridge, British Columbia, Canada

Now
62 °F

Cool.


Feels Like: 62 °F
Forecast: 58 / 83 °F
Wind: 1 mph from Southeast

Location: P. Meadows Coastal Station

Current Time: Jul 29, 2014 at 8:01:43 AM

Latest Report: Jul 29, 2014 at 7:00 AM


Visibility: N/A

Pressure: 30.12 "Hg

Humidity: 81%

Dew point: 56 °F

Location of Maple RidgeLocation

Historic Weather in Maple Ridge — Graph

°F

Maple Ridge temperature yesterday

Maximum temperature yesterday: 87 °F (at 5:00 PM)
Minimum temperature yesterday: 55 °F (at 4:00 AM)
Average temperature yesterday: 71 °F

Past Weeks' High & Low Weather Summary

 TemperatureHumidityPressure
High87 °F (Jul 28, 5:00 PM)97% (Jul 27, 6:00 AM)30.21 "Hg (Jul 27, 6:00 AM)
Low52 °F (Jul 22, 5:00 AM)31% (Jul 28, 5:00 PM)29.89 "Hg (Jul 16, 9:00 PM)
Average66 °F71%30.04 "Hg
* Reported Jul 14 7:00 AM — Jul 29 7:00 AM, Maple Ridge, Weather by CustomWeather, © 2014

Note: Actual official high and low records may vary slightly from our data, if they occured in-between our weather recording intervals... More about our weather records

Advertising

Maple Ridge weather history for previous 24 hours

 ConditionsComfort  
Time TempWeatherWind HumidityBarometerVisibility
7:00 AM
Jul 29
62 °FCool.1 mph81%30.12 "HgN/A
6:00 AM56 °FCool.2 mph95%30.11 "HgN/A
5:00 AM57 °FCool.No wind94%30.10 "HgN/A
4:00 AM59 °FCool.No wind93%30.09 "HgN/A
3:00 AM58 °FCool.2 mph95%30.08 "HgN/A
2:00 AM60 °FCool.No wind94%30.08 "HgN/A
1:00 AM60 °FCool.No wind93%30.08 "HgN/A
12:00 AM62 °FMild.1 mph87%30.07 "HgN/A
11:00 PM
Jul 28
66 °FMild.1 mph71%30.06 "HgN/A
10:00 PM68 °FMild.No wind66%30.06 "HgN/A
9:00 PM74 °FMild.2 mph51%30.05 "HgN/A
8:00 PM79 °FWarm.2 mph45%30.04 "HgN/A
7:00 PM81 °FWarm.5 mph45%30.04 "HgN/A
6:00 PM85 °FWarm.3 mph40%30.05 "HgN/A
5:00 PM87 °FPleasantly warm.5 mph31%30.06 "HgN/A
4:00 PM86 °FPleasantly warm.5 mph39%30.06 "HgN/A
3:00 PM85 °FPleasantly warm.5 mph36%30.08 "HgN/A
2:00 PM84 °FWarm.6 mph41%30.09 "HgN/A
1:00 PM82 °FWarm.5 mph43%30.10 "HgN/A
12:00 PM79 °FWarm.2 mph48%30.11 "HgN/A
11:00 AM76 °FMild.2 mph57%30.11 "HgN/A
10:00 AM72 °FMild.2 mph61%30.12 "HgN/A
9:00 AM67 °FMild.2 mph71%30.13 "HgN/A
8:00 AM66 °FMild.No wind80%30.13 "HgN/A
Weather by CustomWeather, © 2014

See weather overviewHow to use our weather pages